TimeCST,TemperatureF,Dew PointF,Humidity,Sea Level PressureIn,VisibilityMPH,Wind Direction,Wind SpeedMPH,Gust SpeedMPH,PrecipitationIn,Events,Conditions,WindDirDegrees,DateUTC
12:53 AM,52.0,45.0,77,30.28,10.0,ESE,8.1,-,N/A,,Overcast,120,2013-01-09 06:53:00
1:53 AM,53.1,46.0,77,30.28,10.0,ESE,10.4,-,N/A,,Overcast,120,2013-01-09 07:53:00
2:53 AM,52.0,46.9,83,30.29,8.0,SE,6.9,-,0.00,Rain,Light Rain,140,2013-01-09 08:53:00
3:53 AM,51.1,48.0,89,30.30,6.0,ESE,8.1,-,0.04,Rain,Light Rain,120,2013-01-09 09:53:00
4:53 AM,50.0,48.0,93,30.31,5.0,ESE,6.9,-,0.03,Rain,Light Rain,110,2013-01-09 10:53:00
5:53 AM,50.0,48.0,93,30.30,7.0,ESE,8.1,-,0.01,Rain,Light Rain,110,2013-01-09 11:53:00
6:53 AM,51.1,48.9,92,30.33,7.0,ESE,5.8,-,0.00,Rain,Light Rain,110,2013-01-09 12:53:00
7:53 AM,51.1,48.9,92,30.37,5.0,ESE,4.6,-,0.03,Rain,Light Rain,120,2013-01-09 13:53:00
8:53 AM,52.0,50.0,93,30.38,5.0,ESE,10.4,-,0.01,Rain,Light Rain,110,2013-01-09 14:53:00
9:53 AM,53.6,51.8,94,30.38,4.0,ESE,6.9,-,N/A,Rain,Light Rain,110,2013-01-09 15:53:00
10:14 AM,53.6,51.8,94,30.38,4.0,ESE,9.2,-,0.01,Rain,Light Rain,110,2013-01-09 16:14:00
10:42 AM,53.6,53.6,100,30.36,4.0,East,10.4,-,0.01,Rain,Light Rain,100,2013-01-09 16:42:00
10:53 AM,55.0,53.1,93,30.36,5.0,East,9.2,-,0.01,Rain,Light Rain,100,2013-01-09 16:53:00
11:10 AM,55.4,53.6,94,30.36,5.0,East,6.9,-,0.00,Rain,Light Rain,100,2013-01-09 17:10:00
11:25 AM,55.4,53.6,94,30.35,5.0,ESE,8.1,-,0.00,Rain,Light Rain,110,2013-01-09 17:25:00
11:53 AM,55.9,54.0,93,30.33,5.0,East,6.9,-,0.00,Rain,Light Rain,100,2013-01-09 17:53:00
12:23 PM,57.2,55.4,94,30.34,5.0,East,5.8,-,0.00,,Overcast,100,2013-01-09 18:23:00
12:53 PM,57.0,55.0,93,30.33,6.0,East,5.8,-,0.00,,Overcast,100,2013-01-09 18:53:00
1:14 PM,57.2,55.4,94,30.33,6.0,East,8.1,-,N/A,,Overcast,100,2013-01-09 19:14:00
1:53 PM,57.9,55.9,93,30.32,6.0,ESE,9.2,-,0.00,Rain,Light Rain,110,2013-01-09 19:53:00
2:31 PM,57.2,55.4,94,30.34,6.0,East,5.8,-,0.01,Rain,Light Rain,80,2013-01-09 20:31:00
2:38 PM,57.2,55.4,94,30.34,5.0,East,5.8,-,0.01,Rain,Light Rain,80,2013-01-09 20:38:00
2:53 PM,57.9,55.9,93,30.33,4.0,East,4.6,-,0.02,Rain,Light Rain,100,2013-01-09 20:53:00
3:31 PM,57.2,57.2,100,30.33,3.0,East,3.5,-,0.02,Rain,Light Rain,80,2013-01-09 21:31:00
3:42 PM,57.2,57.2,100,30.34,2.0,ENE,4.6,-,0.03,Rain,Light Rain,60,2013-01-09 21:42:00
3:53 PM,57.9,57.0,97,30.33,2.0,ENE,4.6,-,0.04,Rain,Rain,70,2013-01-09 21:53:00
4:03 PM,57.2,57.2,100,30.33,3.0,ENE,6.9,-,0.01,Rain,Light Rain,60,2013-01-09 22:03:00
4:40 PM,57.2,57.2,100,30.33,2.5,East,4.6,-,0.04,Rain,Light Rain,100,2013-01-09 22:40:00
4:49 PM,57.2,57.2,100,30.33,3.0,East,4.6,-,0.05,Rain,Light Rain,90,2013-01-09 22:49:00
4:53 PM,57.9,57.0,97,30.33,3.0,East,4.6,-,0.06,Rain,Rain,100,2013-01-09 22:53:00
5:12 PM,57.2,55.4,94,30.33,3.0,ESE,3.5,-,0.01,Rain,Light Rain,110,2013-01-09 23:12:00
5:19 PM,57.2,55.4,94,30.33,2.0,SE,3.5,-,0.01,Rain,Light Rain,130,2013-01-09 23:19:00
5:28 PM,57.2,55.4,94,30.33,1.5,ESE,4.6,-,0.02,Rain,Light Rain,120,2013-01-09 23:28:00
5:50 PM,57.2,55.4,94,30.34,2.0,ESE,4.6,-,0.04,Rain,Light Rain,120,2013-01-09 23:50:00
5:53 PM,57.0,55.9,96,30.34,2.0,ESE,4.6,-,0.04,Rain,Light Rain,110,2013-01-09 23:53:00
6:10 PM,57.2,55.4,94,30.35,3.0,SE,5.8,-,0.01,Rain,Light Rain,130,2013-01-10 00:10:00
6:53 PM,57.0,55.9,96,30.35,5.0,ESE,10.4,-,0.05,Rain,Light Rain,110,2013-01-10 00:53:00
7:53 PM,57.0,55.9,96,30.36,5.0,ESE,5.8,-,0.04,Rain,Light Rain,110,2013-01-10 01:53:00
8:33 PM,57.2,55.4,94,30.37,2.5,North,4.6,-,0.03,Rain,Rain,10,2013-01-10 02:33:00
8:53 PM,57.0,55.9,96,30.36,2.5,NE,5.8,-,0.05,Rain,Light Rain,40,2013-01-10 02:53:00
9:00 PM,57.2,55.4,94,30.36,3.0,NE,6.9,-,N/A,Rain,Light Rain,40,2013-01-10 03:00:00
9:53 PM,57.9,57.0,97,30.35,5.0,ENE,3.5,-,0.01,,Overcast,70,2013-01-10 03:53:00
10:53 PM,57.9,57.0,97,30.35,9.0,East,8.1,-,N/A,,Overcast,80,2013-01-10 04:53:00
11:00 PM,57.2,57.2,100,30.35,9.0,East,8.1,-,N/A,,Overcast,80,2013-01-10 05:00:00
11:17 PM,57.2,57.2,100,30.36,8.0,East,6.9,-,N/A,,Overcast,100,2013-01-10 05:17:00
11:53 PM,57.9,55.9,93,30.35,4.0,ESE,6.9,-,0.00,Rain,Light Rain,120,2013-01-10 05:53:00